SWA3246 KLAS-KONT

Flight info

Callsign SWA3246
Flight time 0h 34m
Altitude 24000
Route RADYR2 SLVRR FEYLA JCKIE2
Aircraft B738/M-SADE2E3GIJ4RWZ/LB1D1

Departure

Time 2026-05-05 20:39
Airport Harry Reid International Airport (KLAS)

Arrival

Time 2026-05-05 21:13
Airport Ontario International Airport (KONT)
Time Latitude Longitude Altitude Speed Heading
2026-05-05 20:21 36.08165 -115.14805 2106 ft 0 kts 66°
2026-05-05 20:22 36.08165 -115.14804 2106 ft 0 kts 66°
2026-05-05 20:23 36.08164 -115.14818 2107 ft 2 kts 62°
2026-05-05 20:23 36.08157 -115.14836 2108 ft 2 kts 71°
2026-05-05 20:23 36.08151 -115.14853 2108 ft 2 kts 65°
2026-05-05 20:23 36.08155 -115.14875 2109 ft 2 kts 139°
2026-05-05 20:24 36.08162 -115.14880 2109 ft 1 kts 159°
2026-05-05 20:24 36.08165 -115.14882 2109 ft 0 kts 156°
2026-05-05 20:28 36.08154 -115.14876 2109 ft 4 kts 156°
2026-05-05 20:28 36.08115 -115.14854 2109 ft 7 kts 156°
2026-05-05 20:29 36.08056 -115.14822 2110 ft 11 kts 156°
2026-05-05 20:29 36.07963 -115.14771 2109 ft 16 kts 156°
2026-05-05 20:29 36.07877 -115.14722 2110 ft 13 kts 148°
2026-05-05 20:29 36.07844 -115.14601 2107 ft 19 kts 95°
2026-05-05 20:30 36.07832 -115.14405 2100 ft 26 kts 95°
2026-05-05 20:30 36.07826 -115.14223 2096 ft 17 kts 90°
2026-05-05 20:30 36.07826 -115.14049 2090 ft 20 kts 90°
2026-05-05 20:30 36.07827 -115.13882 2086 ft 11 kts 90°
2026-05-05 20:31 36.07827 -115.13753 2082 ft 18 kts 90°
2026-05-05 20:31 36.07828 -115.13579 2077 ft 22 kts 90°
2026-05-05 20:31 36.07827 -115.13406 2072 ft 4 kts 91°
2026-05-05 20:31 36.07827 -115.13404 2072 ft 0 kts 91°
2026-05-05 20:32 36.07827 -115.13387 2071 ft 5 kts 91°
2026-05-05 20:32 36.07826 -115.13306 2069 ft 12 kts 90°
2026-05-05 20:33 36.07827 -115.13171 2066 ft 19 kts 90°
2026-05-05 20:33 36.07827 -115.12983 2059 ft 22 kts 89°
2026-05-05 20:33 36.07828 -115.12787 2055 ft 21 kts 90°
2026-05-05 20:33 36.07828 -115.12578 2051 ft 27 kts 90°
2026-05-05 20:34 36.07827 -115.12324 2047 ft 24 kts 91°
2026-05-05 20:34 36.07784 -115.12201 2047 ft 14 kts 131°
2026-05-05 20:34 36.07742 -115.12138 2047 ft 7 kts 136°
2026-05-05 20:34 36.07736 -115.12135 2047 ft 0 kts 157°
2026-05-05 20:37 36.07711 -115.12128 2048 ft 9 kts 178°
2026-05-05 20:37 36.07643 -115.12197 2050 ft 20 kts 268°
2026-05-05 20:38 36.07643 -115.12250 2050 ft 0 kts 270°
2026-05-05 20:38 36.07643 -115.12322 2050 ft 32 kts 270°
2026-05-05 20:38 36.07641 -115.12997 2063 ft 120 kts 270°
2026-05-05 20:38 36.07644 -115.14321 2151 ft 185 kts 270°
2026-05-05 20:39 36.07678 -115.15955 2943 ft 190 kts 271°
2026-05-05 20:39 36.07709 -115.17494 3782 ft 181 kts 268°
2026-05-05 20:39 36.07677 -115.19065 4390 ft 185 kts 267°
2026-05-05 20:39 36.07632 -115.20662 4994 ft 189 kts 263°
2026-05-05 20:40 36.07444 -115.22261 5530 ft 195 kts 258°
2026-05-05 20:40 36.07174 -115.23914 6010 ft 205 kts 254°
2026-05-05 20:40 36.06620 -115.25547 6492 ft 212 kts 232°
2026-05-05 20:40 36.05447 -115.26664 6989 ft 218 kts 202°
2026-05-05 20:41 36.04001 -115.27286 7474 ft 227 kts 198°
2026-05-05 20:41 36.02504 -115.27902 7941 ft 237 kts 199°
2026-05-05 20:41 36.00913 -115.28612 8414 ft 250 kts 200°
2026-05-05 20:41 35.99262 -115.29345 8892 ft 265 kts 197°
2026-05-05 20:42 35.97467 -115.29924 9381 ft 279 kts 192°
2026-05-05 20:42 35.95570 -115.30379 9858 ft 287 kts 190°
2026-05-05 20:42 35.93677 -115.30799 10336 ft 295 kts 190°
2026-05-05 20:42 35.91701 -115.31252 10813 ft 308 kts 191°
2026-05-05 20:43 35.89710 -115.31728 11281 ft 320 kts 191°
2026-05-05 20:43 35.87615 -115.32241 11755 ft 332 kts 191°
2026-05-05 20:43 35.85493 -115.32762 12212 ft 337 kts 191°
2026-05-05 20:43 35.83239 -115.33318 12695 ft 342 kts 191°
2026-05-05 20:44 35.81002 -115.33868 13170 ft 345 kts 191°
2026-05-05 20:44 35.78757 -115.34420 13644 ft 349 kts 191°
2026-05-05 20:44 35.76447 -115.34986 14182 ft 352 kts 191°
2026-05-05 20:44 35.74039 -115.35574 14701 ft 356 kts 191°
2026-05-05 20:45 35.69347 -115.36719 15681 ft 362 kts 191°
2026-05-05 20:45 35.66993 -115.37295 16166 ft 363 kts 191°
2026-05-05 20:45 35.64601 -115.37882 16657 ft 366 kts 192°
2026-05-05 20:46 35.62221 -115.38697 17151 ft 370 kts 201°
2026-05-05 20:46 35.59976 -115.40194 17657 ft 374 kts 218°
2026-05-05 20:46 35.58103 -115.42328 18169 ft 376 kts 227°
2026-05-05 20:46 35.56332 -115.44698 18689 ft 383 kts 229°
2026-05-05 20:47 35.54569 -115.47153 19207 ft 393 kts 230°
2026-05-05 20:47 35.52758 -115.49678 19735 ft 402 kts 230°
2026-05-05 20:47 35.50888 -115.52256 20263 ft 411 kts 229°
2026-05-05 20:47 35.48982 -115.54860 20791 ft 419 kts 229°
2026-05-05 20:48 35.47048 -115.57486 21311 ft 427 kts 229°
2026-05-05 20:48 35.45066 -115.60165 21845 ft 434 kts 228°
2026-05-05 20:48 35.43088 -115.62829 22371 ft 441 kts 228°
2026-05-05 20:48 35.41068 -115.65543 22901 ft 447 kts 227°
2026-05-05 20:49 35.39052 -115.68249 23428 ft 453 kts 227°
2026-05-05 20:49 35.36985 -115.71019 23872 ft 460 kts 227°
2026-05-05 20:49 35.34903 -115.73807 23923 ft 465 kts 227°
2026-05-05 20:49 35.32832 -115.76578 23926 ft 462 kts 227°
2026-05-05 20:50 35.30705 -115.79417 23924 ft 464 kts 227°
2026-05-05 20:50 35.28612 -115.82205 23919 ft 463 kts 227°
2026-05-05 20:50 35.26491 -115.85030 23917 ft 464 kts 227°
2026-05-05 20:50 35.24341 -115.87890 23910 ft 463 kts 227°
2026-05-05 20:51 35.22266 -115.90647 23908 ft 463 kts 227°
2026-05-05 20:51 35.20160 -115.93444 23904 ft 464 kts 227°
2026-05-05 20:51 35.18021 -115.96283 23896 ft 462 kts 227°
2026-05-05 20:51 35.15838 -115.99179 23898 ft 462 kts 227°
2026-05-05 20:52 35.13670 -116.02055 23896 ft 456 kts 227°
2026-05-05 20:52 35.11598 -116.04802 23893 ft 436 kts 227°
2026-05-05 20:52 35.09661 -116.07368 23894 ft 419 kts 227°
2026-05-05 20:52 35.07795 -116.09840 23899 ft 405 kts 227°
2026-05-05 20:53 35.05941 -116.12296 23904 ft 405 kts 227°
2026-05-05 20:53 35.04034 -116.14818 23840 ft 409 kts 227°
2026-05-05 20:53 35.02122 -116.17345 23601 ft 408 kts 227°
2026-05-05 20:53 35.00180 -116.19907 23269 ft 406 kts 227°
2026-05-05 20:54 34.98245 -116.22337 22939 ft 403 kts 225°
2026-05-05 20:54 34.96180 -116.24723 22603 ft 402 kts 223°
2026-05-05 20:54 34.94175 -116.26949 22285 ft 400 kts 223°
2026-05-05 20:54 34.92180 -116.29137 21969 ft 399 kts 222°
2026-05-05 20:55 34.90153 -116.31358 21654 ft 396 kts 223°
2026-05-05 20:55 34.88151 -116.33566 21337 ft 392 kts 223°
2026-05-05 20:55 34.86169 -116.35819 20998 ft 390 kts 225°
2026-05-05 20:55 34.84243 -116.38084 20639 ft 387 kts 225°
2026-05-05 20:56 34.82395 -116.40292 20278 ft 384 kts 226°
2026-05-05 20:56 34.80606 -116.42462 19921 ft 382 kts 227°
2026-05-05 20:56 34.78900 -116.44827 19560 ft 380 kts 233°
2026-05-05 20:56 34.77368 -116.47248 19212 ft 378 kts 235°
2026-05-05 20:57 34.75906 -116.49714 18867 ft 375 kts 236°
2026-05-05 20:57 34.74505 -116.52142 18528 ft 372 kts 237°
2026-05-05 20:57 34.73117 -116.54562 18191 ft 371 kts 237°
2026-05-05 20:57 34.71728 -116.56968 17958 ft 367 kts 237°
2026-05-05 20:58 34.70339 -116.59349 17958 ft 366 kts 237°
2026-05-05 20:58 34.68935 -116.61738 17958 ft 369 kts 236°
2026-05-05 20:58 34.67514 -116.64140 17956 ft 369 kts 236°
2026-05-05 20:58 34.66053 -116.66599 17875 ft 370 kts 236°
2026-05-05 20:59 34.64514 -116.69183 17476 ft 370 kts 236°
2026-05-05 20:59 34.62971 -116.71767 16961 ft 367 kts 236°
2026-05-05 20:59 34.61460 -116.74293 16409 ft 364 kts 236°
2026-05-05 20:59 34.59974 -116.76831 15835 ft 361 kts 238°
2026-05-05 21:00 34.58682 -116.79383 15287 ft 358 kts 242°
2026-05-05 21:00 34.57468 -116.82075 14724 ft 356 kts 243°
2026-05-05 21:00 34.56329 -116.84710 14177 ft 354 kts 244°
2026-05-05 21:00 34.55190 -116.87357 13607 ft 352 kts 243°
2026-05-05 21:01 34.53937 -116.89946 13025 ft 351 kts 237°
2026-05-05 21:01 34.52474 -116.92283 12467 ft 350 kts 231°
2026-05-05 21:01 34.50937 -116.94422 12023 ft 345 kts 229°
2026-05-05 21:01 34.49353 -116.96528 11947 ft 331 kts 229°
2026-05-05 21:02 34.47837 -116.98627 11953 ft 331 kts 230°
2026-05-05 21:02 34.46240 -117.00708 11951 ft 332 kts 225°
2026-05-05 21:02 34.44455 -117.02605 11958 ft 331 kts 220°
2026-05-05 21:02 34.42506 -117.04230 11974 ft 332 kts 212°
2026-05-05 21:03 34.40356 -117.05619 11649 ft 335 kts 207°
2026-05-05 21:03 34.38146 -117.06898 11038 ft 336 kts 206°
2026-05-05 21:03 34.35927 -117.08176 10418 ft 336 kts 207°
2026-05-05 21:03 34.34011 -117.09317 10020 ft 331 kts 208°
2026-05-05 21:04 34.32158 -117.10450 9972 ft 318 kts 208°
2026-05-05 21:04 34.30348 -117.11571 9984 ft 321 kts 208°
2026-05-05 21:04 34.28522 -117.12705 9975 ft 322 kts 208°
2026-05-05 21:04 34.26706 -117.13831 9981 ft 321 kts 208°
2026-05-05 21:05 34.24897 -117.14952 9971 ft 321 kts 208°
2026-05-05 21:05 34.23067 -117.16087 9537 ft 325 kts 208°
2026-05-05 21:05 34.21062 -117.17331 8862 ft 327 kts 208°
2026-05-05 21:05 34.19236 -117.18462 8217 ft 318 kts 208°
2026-05-05 21:06 34.17406 -117.19595 7589 ft 311 kts 208°
2026-05-05 21:06 34.15611 -117.20710 6955 ft 304 kts 208°
2026-05-05 21:06 34.13828 -117.21816 6315 ft 299 kts 208°
2026-05-05 21:06 34.12081 -117.22899 5677 ft 294 kts 208°
2026-05-05 21:07 34.10329 -117.23985 5028 ft 290 kts 208°
2026-05-05 21:07 34.08503 -117.25114 4342 ft 286 kts 208°
2026-05-05 21:07 34.06634 -117.26270 3751 ft 276 kts 208°
2026-05-05 21:07 34.04970 -117.27299 3951 ft 261 kts 208°
2026-05-05 21:08 34.03377 -117.28288 3949 ft 258 kts 208°
2026-05-05 21:08 34.01925 -117.29500 3938 ft 251 kts 231°
2026-05-05 21:08 34.01216 -117.31492 3949 ft 252 kts 267°
2026-05-05 21:08 34.01538 -117.33631 3962 ft 252 kts 290°
2026-05-05 21:09 34.02177 -117.35521 3819 ft 253 kts 293°
2026-05-05 21:09 34.02846 -117.37369 3666 ft 251 kts 293°
2026-05-05 21:09 34.03511 -117.39186 3514 ft 249 kts 293°
2026-05-05 21:09 34.04185 -117.41012 3361 ft 249 kts 293°
2026-05-05 21:10 34.04865 -117.42838 3205 ft 242 kts 293°
2026-05-05 21:10 34.05508 -117.44566 2983 ft 232 kts 293°
2026-05-05 21:10 34.06198 -117.46427 2984 ft 238 kts 293°
2026-05-05 21:10 34.06573 -117.48371 2971 ft 236 kts 265°
2026-05-05 21:11 34.06212 -117.50121 2986 ft 219 kts 251°
2026-05-05 21:11 34.05766 -117.51694 2953 ft 191 kts 255°
2026-05-05 21:11 34.05508 -117.53243 2590 ft 185 kts 266°
2026-05-05 21:11 34.05490 -117.54749 2040 ft 187 kts 269°
2026-05-05 21:12 34.05498 -117.56210 1386 ft 190 kts 269°
2026-05-05 21:12 34.05500 -117.57509 1061 ft 178 kts 269°
2026-05-05 21:12 34.05508 -117.58631 981 ft 156 kts 268°
2026-05-05 21:12 34.05496 -117.59615 955 ft 128 kts 270°
2026-05-05 21:13 34.05495 -117.60440 955 ft 105 kts 270°
2026-05-05 21:13 34.05496 -117.61050 955 ft 58 kts 272°
2026-05-05 21:13 34.05497 -117.61362 955 ft 38 kts 270°
2026-05-05 21:13 34.05529 -117.61606 955 ft 29 kts 329°
2026-05-05 21:14 34.05667 -117.61610 955 ft 16 kts
2026-05-05 21:14 34.05737 -117.61607 955 ft 12 kts
2026-05-05 21:14 34.05797 -117.61549 955 ft 16 kts 86°
2026-05-05 21:14 34.05799 -117.61423 955 ft 20 kts 90°